Location: Newark
(63.1158°N, 8.1461°E)
Time: 08:42:31
(UTC+00:00)

Envisat - Pass Details

Date: 19 December 2019
Orbit: 764 x 766 km, 98.1° (Epoch: 20 January)

Event Time Altitude Azimuth Distance (km) Brightness Sun altitude
Rises 05:40:00 0° 18° (NNE) 3,250 6.3 -19.0°
Reaches altitude 10° 05:42:32 10° 28° (NNE) 2,319 5.6 -18.7°
Maximum altitude 05:47:11 34° 93° (E) 1,246 4.7 -18.2°
Drops below altitude 10° 05:51:48 10° 159° (SSE) 2,304 6.0 -17.7°
Sets 05:54:18 0° 168° (SSE) 3,226 6.6 -17.5°
